Location: A�t Bou Chrif
(32.7193°N, 5.2385°W)
Time: 23:31:40
(UTC+00:00)

Cosmos 1812 - Pass Details

Date: 08 August 2020
Orbit: 517 x 521 km, 82.5° (Epoch: 18 September)

Event Time Altitude Azimuth Distance (km) Brightness Sun altitude
Rises 20:55:29 0° 355° (N) 2,641 6.9 -20.0°
Reaches altitude 10° 20:57:37 10° 357° (N) 1,750 5.9 -20.4°
Maximum altitude 21:01:28 78° 83° (E) 532 2.5 -21.1°
Enters shadow 21:01:38 75° 119° (ESE) 537 2.5 -21.1°
